STARLINK-11168, 60183

Orbit data source: Space-Track

STARLINK-11168, 60183 is a payload satellite owned by SpaceX/Seattle (US) in LEO that was launched on Wed, 03 Jul 2024 UTC via an FALCON 9 launch vehicle from the Air Force Eastern Test Range (AFETR). Payload-class satellites include a variety of spacecraft equipped with specific instruments for various scientific and technological missions. These include communications satellites like Starlink; space stations such as the ISS; scientific satellites like the Hubble; Earth observation satellites from companies like Planet Labs, Umbra, and HawkEye 360; GPS; miniature CubeSats for education and research; and military/defense satellites.

Loading next visibility...
Identifier
60183, 2024-124A
Orbit
LEO
Last TLE update
11 hours ago
Origin
Manufacturer
SpaceX/Seattle
Mission
Operational Commercial Communications
Bus & Motor
STARLINK V2M, Unknown motor
Mass
730 kg wet, ~700 kg dry
Launch date (UTC)
2024-07-03 (1 year ago)
Launch vehicle
FALCON 9
Launch site
Air Force Eastern Test Range (AFETR)
Object type
Payload
Rocket body
Debris
Shape & HBR
Box + 2 Pan, 29 m
Radar Cross Section
36.964 m², Large (>1 m²)

Expand to show TLE details & history

TLE from 11 hours ago
0 STARLINK-11168
1 60183U 24124A   25181.67659631 -.00000005  00000-0  48086-5 0  9998
2 60183  53.1587 323.5123 0000662  74.1534 285.9557 15.69717672 58157
Epoch: 2025-06-30T16:14Z
TLE epoch observation values (Epoch: 2025-06-30T16:14:17.921Z)
Latitude
0.00001°
Longitude
160.95465°
Altitude
360.497 km
Speed
7.694 km/s
True Right ascension
21h 34m 02s
True Declination
0° 00' 00"
Sunlit
Object was in full shadow at epoch
Visualization orbit readout
Latitude
5.499°
Longitude
162.86391°
Altitude
359.909 km
Speed
7.695 km/s
Apparent Right ascension
23h 41m 53s
Apparent Declination
-20° 05' 55"
Sunlit
Object is in full shadow
Visualization observer readout
Local Sidereal Time
14:35:02
Azimuth
74.789° E
Elevation
-48.142°
Doppler factor
1
Orbital elements
Apogee altitude
360.412 km
Perigee altitude
359.52 km
Semi-major axis
6,738.103 km
Eccentricity
0.00007
Inclination
53.1587°
RAAN
323.5123°
Arg. of periapsis
74.1534°
True anomaly
Unknown
Mean anomaly
285.9557°
Eccentric anomaly
Unknown
Mean motion
3.92407 °/min
Orbital period
91.74 mins
BSTAR
0.0000048086
Loading maneuver chart data...
Loading SW <> Apogee altitude chart data...
Loading historical data...
Loading historical data...
Loading historical data...
Loading historical data...
Loading historical data...
Loading historical data...
Loading historical data...

STARLINK-11168 Visibility forecast

Observer location: undefined°, undefined°

Span
Click to sort rows by Start time (UTC) header in descending order
Start Az.
Max El. time (UTC)
Max El. Az.
Max El.
End time (UTC)
End Az.
5 mins2025-07-01 12:17:49.266Z235.572° WSW2025-07-01 12:19:49.266Z288.071° WNW43.812°2025-07-01 12:22:49.266Z47.151° ENE
4 mins2025-07-01 18:42:49.266Z320.144° NNW2025-07-01 18:44:49.266Z58.013° ENE41.433°2025-07-01 18:46:49.266Z118.091° SE
|